Torna al catalogo

ARIANE 5 R/B

AttivoHEO
NORAD 29275·ROCKET BODY·🇫🇷 France

Lanciato Aug 11, 2006 da Guiana Space Centre

Loading…

Prossimi Passaggi (prossime 24 ore)

TLE

AggiornatoSource: Space-Track

Epoca: Sep 14, 2026, 11:16 UTC

1 29275U 06033D   26257.46969993  .00001186  00000-0  48459-3 0  9993
2 29275   6.3969  45.7899 6958831 246.3452  29.7205  2.68020211179800

Traccia ARIANE 5 R/B in tempo reale con AllMySat

Download on the App Store